Probability
0 1 3 5 9 12 13 12 11 10 10 10 10 10 10 10 10 10 10 8 5 4 3 3 3 3 3 3 2 1 1 0 0 0 0 0 0 0 0 0 0 0 0
0 1 3 6 9 12 13 13 12 10 10 10 10 10 10 10 10 10 9 8 6 4 3 3 3 3 3 3 3 2 2 1 1 0 0 0 0 0 0 0 0 0 0
0 1 3 7 10 12 13 13 12 11 10 10 10 10 10 10 10 10 9 8 6 5 4 3 3 3 3 3 3 3 3 2 1 0 0 0 0 0 0 0 0 0 0
0 1 4 8 11 12 13 13 12 11 10 10 10 10 10 10 10 10 9 8 7 7 5 4 3 3 4 4 3 3 3 3 1 0 0 0 0 0 0 0 0 0 0
1 2 4 7 10 12 13 13 13 12 10 10 10 10 10 10 10 10 9 9 9 9 7 5 4 4 5 5 4 3 3 2 1 0 0 0 0 0 0 0 0 0 0
3 3 4 6 10 13 14 14 14 13 11 10 10 10 10 10 10 10 10 10 10 10 9 7 6 6 6 6 4 3 2 1 0 0 0 0 0 0 0 0 0 0 0
4 4 4 6 10 14 15 14 15 15 13 11 10 10 10 10 10 10 10 10 10 11 11 9 7 6 6 6 4 3 1 0 0 0 0 0 0 0 0 0 0 0 0
4 4 5 5 8 12 14 14 14 16 15 13 12 11 10 10 9 9 9 10 11 12 12 10 8 7 6 5 4 2 1 0 0 0 0 0 0 0 0 0 0 0 0
2 4 5 4 6 9 11 12 13 13 14 13 12 12 11 10 9 8 8 10 12 12 12 11 9 7 6 4 2 1 0 0 0 0 0 0 0 0 0 0 0 0 0
1 2 3 4 5 7 9 10 11 11 11 11 11 11 10 10 9 7 7 9 11 11 11 10 9 7 5 3 1 0 0 0 0 0 0 0 1 1 1 0 0 0 0
2 1 1 3 4 5 7 8 9 9 8 8 9 8 9 9 9 7 7 8 10 10 10 9 8 5 2 1 0 0 0 0 0 0 0 1 2 2 1 0 0 0 0
2 1 1 2 3 4 4 5 7 7 6 6 7 7 7 8 8 6 5 7 8 8 7 7 5 2 0 0 0 0 0 0 0 0 0 1 2 3 2 1 1 0 0
3 2 1 1 3 3 3 4 4 4 4 4 5 6 7 7 7 6 5 6 6 4 3 3 2 1 0 0 0 0 0 0 0 0 0 1 2 3 3 3 2 1 0
3 3 1 1 3 3 3 3 3 2 2 3 4 5 6 7 7 6 5 5 3 1 0 1 1 1 0 0 0 0 0 0 0 0 0 1 2 2 3 3 2 1 0
3 3 3 3 4 4 4 3 1 1 1 2 3 4 5 6 6 6 5 2 1 0 0 1 1 1 0 0 0 0 0 0 0 0 0 0 1 1 1 2 1 0 0
2 3 3 4 5 6 5 4 2 1 0 1 2 3 4 5 4 4 3 1 0 0 0 0 0 0 0 0 0 0 0 0 0 0 0 0 0 0 0 0 0 0 0
1 2 3 4 6 6 6 6 4 3 1 0 1 1 1 2 3 2 2 1 0 0 0 0 0 0 0 0 0 0 0 0 0 0 0 0 0 0 0 0 0 0 0
0 1 3 5 6 6 6 6 6 4 2 1 0 0 0 1 1 1 1 0 0 0 0 0 0 0 0 0 0 0 0 0 0 0 0 0 0 0 0 0 0 0 0
0 1 2 4 6 6 6 6 5 4 3 2 0 0 0 0 1 1 1 0 0 0 0 0 0 0 0 0 0 0 0 0 0 0 0 0 0 0 0 0 0 0 0
1 1 2 3 5 6 6 6 4 3 3 2 0 1 1 2 2 2 2 1 0 0 0 0 0 0 0 0 0 0 0 0 0 0 0 0 0 0 0 0 0 0 0
2 2 3 3 4 5 6 6 4 3 3 2 1 1 2 3 3 3 2 1 0 0 0 0 0 0 0 0 0 0 0 0 0 0 0 0 0 0 0 0 0 0 0
1 2 3 3 3 4 5 5 3 2 2 2 1 1 2 3 3 3 1 0 0 0 0 0 0 0 0 0 0 0 0 0 0 0 0 0 0 0 0 0 0 0 0
0 1 2 3 3 3 4 4 2 1 1 1 0 0 1 2 3 2 1 0 0 0 0 0 0 0 0 0 0 0 0 0 0 0 0 0 0 0 0 0 0 0 0
0 0 1 2 3 3 3 3 1 0 0 0 0 0 0 1 2 2 1 0 0 0 0 0 0 0 0 0 0 0 0 0 0 0 0 0 0 0 0 0 0 0 0
0 0 0 1 2 3 3 2 1 0 0 0 0 0 0 1 1 1 0 0 0 0 0 0 0 0 0 0 0 0 0 0 0 0 0 0 0 0 0 0 0 0 0
0 0 0 1 2 3 3 2 1 0 0 0 0 0 1 2 2 1 0 0 0 0 0 0 0 0 0 0 0 0 0 0 0 0 0 0 0 0 0 0 0 0 0
Wind_Speed
2 2 6 7 9 10 10 11 11 11 11 12 12 13 13 13 13 14 14 14 14 14 14 15 15 15 16 16 16 16 16 16 16 16 15 15 15 16 16 16 14 10 17
4 4 6 7 8 9 10 10 11 11 11 11 12 13 13 13 13 13 13 13 14 14 14 14 15 15 15 15 15 16 16 16 15 15 13 12 13 16 16 15 14 11 17
5 4 6 7 8 9 10 10 11 11 11 11 12 12 12 13 13 13 13 13 13 13 14 14 14 14 14 15 15 15 16 15 15 13 11 6 9 15 16 15 16 16 17
5 4 4 6 8 9 10 10 11 11 11 11 11 12 12 12 13 13 12 12 13 13 13 14 14 14 14 14 15 15 15 15 14 12 7 6 6 14 15 15 16 16 17
5 4 4 6 7 9 10 10 11 11 11 11 11 11 12 12 12 12 12 12 12 13 13 13 14 13 13 13 14 14 15 14 13 10 6 6 5 13 15 15 16 16 16
4 3 4 7 7 8 9 10 10 11 11 11 11 11 11 12 12 12 12 12 11 12 13 13 13 13 13 13 13 14 14 14 10 6 6 5 5 12 15 15 15 15 16
4 3 4 6 7 7 8 9 10 10 11 11 11 11 11 11 11 11 11 11 11 12 12 13 12 12 13 13 13 14 13 12 8 6 5 5 7 14 15 15 15 15 16
4 4 4 6 6 6 7 8 9 10 10 10 10 10 10 10 10 11 11 11 11 11 12 12 12 12 12 12 13 13 13 11 8 7 5 5 9 13 14 15 15 15 16
4 3 2 3 4 5 6 6 7 8 9 10 10 10 9 9 10 10 10 10 11 11 11 11 11 11 12 12 12 13 12 11 6 4 5 4 10 13 14 14 15 15 15
3 3 2 2 2 3 3 6 7 7 8 9 9 9 8 8 8 9 8 10 10 10 10 11 11 11 11 12 12 12 12 9 6 5 3 5 11 13 14 14 15 15 15
3 2 2 2 2 2 3 4 5 6 6 7 7 8 7 4 4 5 6 9 9 9 10 10 11 11 11 11 11 11 9 4 5 4 3 8 11 13 13 14 14 14 14
2 1 1 2 2 2 2 3 2 3 3 3 3 4 3 3 3 4 6 8 8 8 8 9 10 10 8 5 7 8 4 5 4 3 4 10 11 12 13 13 13 14 14
3 2 1 2 2 2 2 2 2 2 2 3 3 3 3 3 3 3 2 4 5 6 4 5 5 4 4 3 4 4 5 4 3 3 4 9 11 12 12 12 13 13 13
2 2 1 2 2 2 3 2 2 2 2 2 2 3 3 2 2 2 2 2 3 2 3 3 3 4 5 4 5 5 5 4 3 3 4 9 10 11 11 12 12 12 12
2 2 1 1 3 3 3 3 3 2 2 2 2 2 3 3 3 2 2 2 3 2 3 3 3 4 5 4 5 5 5 4 4 4 3 8 9 10 10 11 11 11 11
3 2 1 2 2 3 3 3 3 2 2 2 2 2 3 3 3 3 3 2 2 2 3 3 3 4 4 4 5 5 5 4 4 4 4 5 8 9 9 10 11 11 11
3 2 2 3 3 3 3 3 3 2 2 2 2 2 2 3 3 3 3 2 2 3 4 4 3 4 4 4 5 5 4 4 4 5 4 3 4 7 9 9 10 10 10
2 2 2 3 3 3 3 3 2 2 3 2 2 2 2 3 3 3 3 2 2 3 3 4 3 4 4 4 4 3 3 4 5 5 5 4 3 4 6 9 9 9 9
2 3 3 3 3 3 3 3 3 2 2 2 2 2 2 3 3 3 3 2 3 3 3 4 3 4 5 4 4 4 3 3 4 5 5 5 4 4 4 6 9 9 9
2 2 3 3 3 3 3 2 2 2 2 2 2 2 2 2 3 3 3 3 3 3 3 3 4 3 4 5 5 5 4 3 4 4 4 4 4 5 4 5 4 5 7
1 1 2 3 3 3 2 2 2 2 1 1 1 2 2 3 3 3 3 4 4 3 4 4 4 5 4 4 5 4 4 4 4 3 3 3 4 4 4 4 3 3 3
0 1 1 1 3 4 3 3 2 2 1 1 1 1 2 3 3 3 3 3 4 4 4 5 5 3 3 3 4 5 3 2 2 3 2 3 3 3 4 4 3 3 2
1 1 1 1 2 3 3 2 2 2 2 1 1 1 1 2 3 3 3 3 3 4 5 5 5 5 5 2 2 4 5 4 1 1 2 2 2 2 2 2 3 2 2
2 1 1 1 1 2 3 3 4 4 3 2 2 1 1 2 2 3 3 3 4 3 4 4 4 2 5 4 1 1 2 4 5 2 0 1 1 1 1 1 1 1 2
1 0 1 1 1 2 3 4 4 4 2 1 2 2 1 1 2 2 3 3 3 3 4 4 3 2 3 4 3 2 2 2 2 4 3 1 0 1 0 0 0 1 2
2 1 0 0 1 1 2 4 4 4 3 3 3 3 2 1 1 2 3 3 3 3 4 4 4 3 3 4 3 2 3 3 3 3 3 3 2 1 1 0 1 1 1
Wind_Direction
187 189 159 147 132 124 119 114 111 108 106 104 102 100 99 96 98 98 97 96 95 92 91 89 87 87 86 85 84 83 81 79 77 74 74 77 81 82 81 78 75 73 80
161 168 146 140 133 127 122 118 114 110 107 106 104 104 102 101 98 100 98 98 96 94 93 91 89 87 87 86 86 84 82 80 78 73 69 70 77 83 83 81 80 81 82
140 154 149 136 132 130 126 122 118 114 111 108 107 106 106 104 101 99 100 100 99 97 95 93 91 89 87 87 87 85 83 82 79 73 67 63 76 84 85 83 84 84 83
138 137 141 133 132 134 130 127 123 120 116 112 110 109 108 106 103 102 100 102 102 99 97 96 94 92 90 89 88 86 83 81 79 76 67 61 73 85 86 85 86 85 84
132 129 134 125 130 137 134 130 127 125 120 116 113 112 112 110 107 105 101 100 101 99 99 98 96 93 91 90 88 86 85 82 78 71 65 61 69 87 88 87 86 87 87
126 128 134 121 126 133 137 134 131 129 124 121 118 116 115 113 111 108 105 100 100 101 102 100 97 94 92 90 87 86 86 82 76 68 63 61 69 90 91 90 89 89 89
125 123 135 125 123 126 134 136 134 131 128 125 122 121 118 116 113 111 107 106 102 104 104 102 99 95 93 90 87 85 84 82 78 69 64 65 78 89 92 93 92 91 90
129 126 131 131 126 124 126 136 136 132 129 127 124 123 121 117 116 113 112 110 106 105 106 103 100 97 95 92 88 84 82 83 81 75 68 70 87 91 92 90 90 89 88
109 115 114 126 132 129 123 123 133 132 129 129 127 121 118 116 115 114 114 112 110 105 106 103 99 96 93 91 87 83 82 77 76 72 75 74 90 93 93 92 91 90 88
82 91 87 95 110 119 126 123 121 124 127 125 122 118 115 115 114 113 114 112 110 105 105 104 99 96 92 88 84 81 80 75 70 67 63 84 91 94 95 94 92 91 91
72 75 83 86 98 112 118 121 116 119 119 119 117 113 106 100 103 107 111 111 110 104 102 104 98 95 90 85 81 77 75 69 68 65 66 88 95 97 96 96 95 94 94
145 123 100 103 101 117 121 111 103 98 102 92 97 106 103 100 100 103 110 110 106 101 95 99 95 92 84 79 75 73 73 72 67 63 76 89 95 97 97 98 98 98 96
165 155 130 129 127 121 117 114 101 94 92 93 97 97 97 93 93 87 95 99 94 91 83 92 88 84 84 83 81 78 78 76 67 61 73 86 92 97 99 101 101 101 100
146 160 118 141 131 121 119 121 114 111 112 107 108 107 110 108 106 110 106 109 105 105 98 96 104 96 91 89 88 86 81 81 76 67 71 81 89 97 100 102 102 102 103
155 154 139 137 136 129 121 121 115 119 125 123 108 109 118 125 129 127 122 114 111 111 109 102 107 103 99 96 92 90 85 82 85 78 72 75 84 93 100 102 102 103 103
177 162 154 134 134 128 125 128 130 132 127 123 114 103 122 129 134 132 127 122 118 117 117 112 113 110 104 101 94 90 87 80 83 80 73 70 72 82 94 102 102 101 102
186 166 165 145 122 128 130 129 129 131 128 127 129 120 115 124 137 138 136 133 132 125 120 112 102 109 105 98 94 90 88 80 82 79 71 64 63 69 80 90 97 100 101
164 168 171 143 131 131 130 136 134 134 131 130 130 126 121 124 136 136 137 138 138 131 126 126 117 119 109 105 100 89 83 83 81 78 71 64 57 56 65 75 80 89 95
173 173 167 152 148 144 130 122 124 129 130 130 127 127 133 130 137 140 138 138 139 132 128 134 125 132 125 115 107 90 78 82 82 79 73 66 62 58 57 65 68 72 78
169 172 164 154 154 150 138 116 108 110 122 120 126 126 132 138 139 137 139 144 143 138 127 129 131 126 130 127 110 88 69 67 74 75 77 69 64 61 58 56 54 54 63
73 118 162 166 163 152 157 166 160 173 168 136 117 119 133 138 144 140 145 149 148 148 147 139 133 134 124 126 110 93 56 51 61 65 71 76 67 60 60 57 53 48 49
146 165 159 176 173 169 174 180 172 166 163 146 115 112 133 140 152 151 143 157 157 149 145 147 141 142 142 147 135 128 113 51 27 42 57 80 72 62 61 57 59 55 53
348 219 197 186 170 173 165 141 128 103 78 78 129 157 135 141 153 147 150 161 160 157 161 164 158 153 158 167 138 143 150 172 161 19 37 71 78 71 58 55 59 52 57
282 251 193 178 159 168 158 152 155 161 170 195 188 168 142 141 148 141 151 164 160 159 162 171 165 163 159 163 163 77 117 142 149 153 346 29 62 74 55 49 49 53 54
298 273 217 180 162 160 163 160 166 171 171 143 145 140 162 166 156 146 151 162 163 167 163 166 160 158 164 162 161 152 110 95 104 144 168 192 24 10 355 30 87 64 41
353 10 327 174 189 168 168 169 174 171 166 151 152 167 178 186 174 168 163 164 170 173 167 172 169 170 171 158 152 152 148 152 158 142 154 172 188 239 312 282 140 117 55